User: anonymous   Login
Location: Caltech
(34.1382°N, 118.1253°W)
Time: 17:31:58
(UTC-08:00)
Language:

Iridium 49 - Orbit

View from above orbital plane
View from above orbital plane
View from above satellite
View from above satellite

Ground track
Ground track

The orbit data is extracted from the following two-line orbital elements,

1 25108U 97082E   14353.30578343  .00000855  00000-0  29820-3 0   398
2 25108 086.3977 276.1510 0002212 099.5537 059.6661 14.34225465889818
Epoch (UTC): 19 December 2014 07:20:19
Eccentricity: 0.0002212
inclination: 86.3977°
perigee height: 776 km
apogee height: 779 km
right ascension of ascending node: 276.1510°
argument of perigee: 99.5537°
revolutions per day: 14.34225465
mean anomaly at epoch: 59.6661°
orbit number at epoch: 88981

The dashed part of the orbit path shows where the satellite is in the earth's shadow,  

DLR